User: anonymous   Login
Location: Shell Point
(30.0571°N, 84.2896°W)
Time: 07:53:34
(UTC-04:00)
Language:

Meteor 2-19 Rocket - Orbit

View from above orbital plane
View from above orbital plane
View from above satellite
View from above satellite

Ground track
Ground track

The orbit data is extracted from the following two-line orbital elements,

1 20671U 90057B   16238.61834866  .00000020  00000-0  47910-5 0  9997
2 20671  82.5438 247.0461 0016506  69.3676  70.3337 13.84602786322169
Epoch (UTC): 25 August 2016 14:50:25
Eccentricity: 0.0016506
inclination: 82.5438°
perigee height: 935 km
apogee height: 960 km
right ascension of ascending node: 247.0461°
argument of perigee: 69.3676°
revolutions per day: 13.84602786
mean anomaly at epoch: 70.3337°
orbit number at epoch: 32216

The dashed part of the orbit path shows where the satellite is in the earth's shadow,  

DLR